TimeEDT,TemperatureF,Dew PointF,Humidity,Sea Level PressureIn,VisibilityMPH,Wind Direction,Wind SpeedMPH,Gust SpeedMPH,PrecipitationIn,Events,Conditions,WindDirDegrees,DateUTC
12:53 AM,37.9,28.9,70,30.02,10.0,Calm,Calm,-,N/A,,Partly Cloudy,0,2012-11-03 04:53:00
1:53 AM,37.0,28.9,73,30.03,10.0,Calm,Calm,-,N/A,,Partly Cloudy,0,2012-11-03 05:53:00
2:53 AM,33.1,28.0,82,30.04,10.0,Calm,Calm,-,N/A,,Clear,0,2012-11-03 06:53:00
3:53 AM,32.0,28.0,85,30.05,10.0,Calm,Calm,-,N/A,,Clear,0,2012-11-03 07:53:00
4:53 AM,33.1,28.9,85,30.06,10.0,Calm,Calm,-,N/A,,Clear,0,2012-11-03 08:53:00
5:44 AM,30.2,28.4,93,30.09,4.0,Calm,Calm,-,N/A,,Scattered Clouds,0,2012-11-03 09:44:00
5:48 AM,30.2,28.4,93,30.09,0.5,Calm,Calm,-,N/A,Fog,Light Freezing Fog,0,2012-11-03 09:48:00
5:53 AM,30.9,28.0,89,30.08,0.5,Calm,Calm,-,N/A,Fog,Light Freezing Fog,0,2012-11-03 09:53:00
6:01 AM,30.2,28.4,93,30.10,0.2,Calm,Calm,-,N/A,Fog,Light Freezing Fog,0,2012-11-03 10:01:00
6:10 AM,30.2,26.6,86,30.11,0.5,Calm,Calm,-,N/A,Fog,Light Freezing Fog,0,2012-11-03 10:10:00
6:53 AM,28.9,27.0,92,30.11,0.5,Calm,Calm,-,N/A,Fog,Light Freezing Fog,0,2012-11-03 10:53:00
7:10 AM,30.2,28.4,93,30.12,5.0,Calm,Calm,-,N/A,,Clear,0,2012-11-03 11:10:00
7:53 AM,30.9,28.0,89,30.12,10.0,Calm,Calm,-,N/A,,Partly Cloudy,0,2012-11-03 11:53:00
8:53 AM,30.9,28.0,89,30.15,10.0,Calm,Calm,-,N/A,,Partly Cloudy,0,2012-11-03 12:53:00
9:53 AM,39.0,32.0,76,30.14,10.0,Calm,Calm,-,N/A,,Clear,0,2012-11-03 13:53:00
10:53 AM,45.0,34.0,65,30.13,10.0,Calm,Calm,-,N/A,,Clear,0,2012-11-03 14:53:00
11:53 AM,50.0,32.0,50,30.12,10.0,Calm,Calm,-,N/A,,Clear,0,2012-11-03 15:53:00
12:53 PM,54.0,30.9,41,30.10,10.0,Calm,Calm,-,N/A,,Clear,0,2012-11-03 16:53:00
1:53 PM,55.9,30.0,37,30.06,10.0,Calm,Calm,-,N/A,,Scattered Clouds,0,2012-11-03 17:53:00
2:53 PM,57.9,30.9,36,30.05,10.0,Calm,Calm,-,N/A,,Mostly Cloudy,0,2012-11-03 18:53:00
3:53 PM,57.9,30.0,35,30.04,10.0,Calm,Calm,-,N/A,,Mostly Cloudy,0,2012-11-03 19:53:00
4:53 PM,60.1,30.0,32,30.01,10.0,Calm,Calm,-,N/A,,Mostly Cloudy,0,2012-11-03 20:53:00
5:53 PM,59.0,32.0,36,29.99,10.0,Calm,Calm,-,N/A,,Mostly Cloudy,0,2012-11-03 21:53:00
6:53 PM,55.0,32.0,42,29.98,10.0,Calm,Calm,-,N/A,,Partly Cloudy,0,2012-11-03 22:53:00
7:53 PM,48.9,34.0,56,29.98,10.0,Calm,Calm,-,N/A,,Partly Cloudy,0,2012-11-03 23:53:00
8:53 PM,46.9,35.1,63,29.98,10.0,Calm,Calm,-,N/A,,Scattered Clouds,0,2012-11-04 00:53:00
9:53 PM,46.0,37.0,71,29.98,10.0,Calm,Calm,-,N/A,,Mostly Cloudy,0,2012-11-04 01:53:00
10:53 PM,48.9,37.0,64,29.98,10.0,Calm,Calm,-,N/A,,Overcast,0,2012-11-04 02:53:00
11:53 PM,52.0,36.0,54,29.98,10.0,NE,5.8,-,0.00,,Overcast,40,2012-11-04 03:53:00